Zurück zum Katalog

DELTA 1 DEB

AktivUNKNOWN
NORAD 10762·DEBRIS·🇺🇸 United States

Gestartet Jul 29, 1976 von Vandenberg Space Force Base

Loading…

Nächste Überflüge (nächste 24 Stunden)

TLE

AktuellSource: Space-Track

Epoche: Sep 14, 2026, 10:12 UTC

1 10762U 76077BK  26257.42525540 -.00000591  00000-0 -54687-2 0  9991
2 10762 102.6433 326.5490 0673250 176.0189 184.6572 11.70146932605144

Verfolge DELTA 1 DEB in Echtzeit mit AllMySat

Download on the App Store